Oradea, Romania

1:39 AM EEST on June 29, 2017 (GMT +0300)
Oradea

Weather History for LROD - March, 2014

Change the Weather History Date:

Tuesday, March 11, 2014

  Actual Average Record
Temperature  
Mean Temperature 44 °F -  
Max Temperature 59 °F - - ()
Min Temperature 30 °F - - ()
Degree Days  
Heating Degree Days 20    
Moisture  
Dew Point 23 °F    
Average Humidity 46    
Maximum Humidity 75    
Minimum Humidity 25    
Precipitation  
Precipitation 0.00 in - - ()
Sea Level Pressure  
Sea Level Pressure 30.25 in    
Wind  
Wind Speed 7 mph ()    
Max Wind Speed 14 mph    
Max Gust Speed -    
Visibility 5.7 miles    
Events      
T = Trace of Precipitation, MM = Missing Value Source: Averaged Metar Reports

Daily Weather History Graph

Daily Weather History Graph

Search for Another Location

Airport or City:

Trip Planner

Search our weather history database for the weather conditions in past years. The results will help you decide how hot, cold, wet, or windy it might be!

Date:

Astronomy

Mar. 11, 2014 Rise Set
Actual Time 6:53 AM EET 6:31 PM EET
Civil Twilight 6:23 AM EET 7:02 PM EET
Nautical Twilight 5:47 AM EET 7:37 PM EET
Astronomical Twilight 5:12 AM EET 8:13 PM EET
Moon 1:37 PM EET (3/11) 3:49 AM EET (3/11)
Length of Visible Light 12h 38m
Length of Day
11h 38m
Waxing Gibbous, 76% of the Moon is Illuminated
Mar 11
Waxing Gibbous
Mar 16
Full
Mar 24
Last Quarter
Mar 30
New
Apr 7
First Quarter

Hourly Weather History & Observations

Time (EET) Temp. Windchill Dew Point Humidity Pressure Visibility Wind Dir Wind Speed Gust Speed Precip Events Conditions
12:00 AM 37.4 °F 32.1 °F 21.2 °F 52% 30.27 in 6.2 mi East 6.9 mph - N/A   Unknown
1:00 AM 35.6 °F 29.9 °F 21.2 °F 56% 30.24 in 6.2 mi East 6.9 mph - N/A   Unknown
2:00 AM 35.6 °F 28.6 °F 23.0 °F 60% 30.24 in 6.2 mi East 9.2 mph - N/A   Unknown
3:00 AM 30.2 °F 21.9 °F 23.0 °F 75% 30.24 in 6.2 mi ESE 9.2 mph - N/A   Unknown
4:00 AM 30.2 °F 23.4 °F 21.2 °F 69% 30.21 in 6.2 mi East 6.9 mph - N/A   Unknown
5:00 AM 30.2 °F 21.9 °F 21.2 °F 69% 30.21 in - East 9.2 mph - N/A   Clear
5:30 AM 30.2 °F 21.9 °F 21.2 °F 69% 30.21 in - East 9.2 mph - N/A   Clear
6:00 AM 30.2 °F 23.4 °F 21.2 °F 69% 30.21 in - ESE 6.9 mph - N/A   Clear
6:30 AM 30.2 °F 23.4 °F 21.2 °F 69% 30.24 in - East 6.9 mph - N/A   Clear
7:00 AM 32.0 °F 27.5 °F 21.2 °F 64% 30.24 in - East 4.6 mph - N/A   Clear
7:30 AM 32.0 °F 27.5 °F 21.2 °F 64% 30.24 in - East 4.6 mph - N/A   Clear
8:00 AM 33.8 °F 29.6 °F 23.0 °F 65% 30.24 in - East 4.6 mph - N/A   Clear
8:30 AM 37.4 °F 33.8 °F 23.0 °F 56% 30.27 in - East 4.6 mph - N/A   Clear
9:00 AM 39.2 °F 35.9 °F 24.8 °F 56% 30.27 in - East 4.6 mph - N/A   Clear
9:30 AM 42.8 °F 40.1 °F 23.0 °F 46% 30.27 in - ENE 4.6 mph - N/A   Clear
10:00 AM 46.4 °F - 24.8 °F 43% 30.27 in - Variable 2.3 mph - N/A   Clear
10:30 AM 50.0 °F - 26.6 °F 40% 30.27 in - Variable 2.3 mph - N/A   Clear
11:00 AM 51.8 °F - 24.8 °F 35% 30.27 in - NNW 4.6 mph - N/A   Clear
11:30 AM 53.6 °F - 23.0 °F 30% 30.27 in - NNE 11.5 mph - N/A   Clear
12:00 PM 53.6 °F - 21.2 °F 28% 30.27 in - NNE 13.8 mph - N/A   Clear
12:30 PM 53.6 °F - 23.0 °F 30% 30.27 in - NNE 13.8 mph - N/A   Clear
1:00 PM 55.4 °F - 23.0 °F 29% 30.24 in - NNE 11.5 mph - N/A   Clear
1:30 PM 55.4 °F - 23.0 °F 29% 30.24 in - North 9.2 mph - N/A   Clear
2:00 PM 55.4 °F - 23.0 °F 29% 30.24 in - North 13.8 mph - N/A   Clear
2:30 PM 57.2 °F - 23.0 °F 27% 30.24 in - NE 11.5 mph - N/A   Clear
3:00 PM 59.0 °F - 23.0 °F 25% 30.24 in - North 11.5 mph - N/A   Clear
3:30 PM 59.0 °F - 24.8 °F 27% 30.24 in - NNE 11.5 mph - N/A   Clear
4:00 PM 59.0 °F - 24.8 °F 27% 30.21 in - North 11.5 mph - N/A   Clear
4:30 PM 59.0 °F - 24.8 °F 27% 30.21 in - North 13.8 mph - N/A   Clear
5:00 PM 57.2 °F - 23.0 °F 27% 30.21 in 6.2 mi North 13.8 mph - N/A   Unknown
5:30 PM 57.2 °F - 23.0 °F 27% 30.24 in - NNE 11.5 mph - N/A   Clear
6:00 PM 57.2 °F - 21.2 °F 25% 30.24 in - NNE 6.9 mph - N/A   Clear
6:30 PM 53.6 °F - 21.2 °F 28% 30.24 in - NNE 4.6 mph - N/A   Clear
7:00 PM 53.6 °F - 21.2 °F 28% 30.24 in - NE 4.6 mph - N/A   Clear
7:30 PM 50.0 °F - 23.0 °F 35% 30.24 in - North 4.6 mph - N/A   Clear
8:00 PM 50.0 °F - 23.0 °F 35% 30.27 in - NE 2.3 mph - N/A   Clear
8:30 PM 41.0 °F - 26.6 °F 57% 30.27 in - Calm Calm - N/A   Clear
9:00 PM 41.0 °F - 26.6 °F 57% 30.27 in - Calm Calm - N/A   Clear
9:30 PM 41.0 °F - 26.6 °F 57% 30.27 in - Calm Calm - N/A   Clear
10:00 PM 37.4 °F - 26.6 °F 65% 30.27 in - Calm Calm - N/A   Clear
10:30 PM 39.2 °F - 26.6 °F 61% 30.27 in 5.0 mi Calm Calm - N/A   Unknown
11:00 PM 37.4 °F - 26.6 °F 65% 30.30 in 3.1 mi Variable 2.3 mph - N/A   Mist